Notices

What's New in latest Release from April 7th, 2021:

- Updated Glossary, including Speed of Maximum Gust, and Total Hourly Precipitation

- Updated national and regional climate services offices contacts and prices information

- Addition of station inventory lists for 1981-2010, 1971-2000, and 1961-1990 Normals.

If you haven't already, please take our survey and provide feedback about our website: https://eccc.sondage-survey.ca/f/LanguageSelection.aspx?s=442ca660-fcf1-47c0-95a9-59707d6fd709

Hourly Data Report for May 08, 2020

MIRAMICHI RCS
NEW BRUNSWICK
Current Station Operator: ECCC - MSC

47°00'34.000" N
65°27'54.000" W
33.00 m
8100989
71744
ACQ

Download Data

Hourly Data (May 2020)
Hourly Data Report for May 8, 2020
TIME
LST
Temp Definition
°C
Dew Point Definition
°C
Rel Hum Definition
%
Precip. Amount Definition
mm

Wind Dir Definition
10's deg

Wind Spd Definition
km/h
Visibility Definition
km
Stn Press Definition
kPa
Hmdx Definition


Wind Chill Definition


Weather Definition


00:00 1.5 -0.3 88 LegendMM 35 3   99.81     LegendNANA
01:00 -0.1 -1.7 89 LegendMM 0 1   99.79   0 LegendNANA
02:00 -1.1 -2.8 88 LegendMM 0 1   99.78   -1 LegendNANA
03:00 -1.7 -3.4 88 LegendMM 22 2   99.77   -2 LegendNANA
04:00 -2.0 -3.4 90 LegendMM 25 5   99.78   -4 LegendNANA
05:00 -1.5 -3.8 85 LegendMM 25 5   99.77   -3 LegendNANA
06:00 -0.6 -2.4 88 LegendMM 26 5   99.78   -2 LegendNANA
07:00 1.9 -1.5 78 LegendMM 26 5   99.73     LegendNANA
08:00 5.4 -1.6 60 LegendMM   0   99.63     LegendNANA
09:00 9.4 -2.2 44 LegendMM 8 11   99.53     LegendNANA
10:00 11.4 -3.8 34 LegendMM 7 16   99.42     LegendNANA
11:00 12.2 -4.1 32 LegendMM 12 18   99.36     LegendNANA
12:00 11.9 -3.2 35 LegendMM 14 19   99.33     LegendNANA
13:00 9.1 2.2 62 LegendMM 21 26   99.37     LegendNANA
14:00 5.8 2.8 81 LegendMM 23 30   99.46     LegendNANA
15:00 5.5 2.0 78 LegendMM 25 32   99.48     LegendNANA
16:00 5.7 1.0 72 LegendMM 26 31   99.55     LegendNANA
17:00 7.3 -1.0 55 LegendMM 27 30   99.63     LegendNANA
18:00 7.3 -2.3 51 LegendMM 28 26   99.71     LegendNANA
19:00 6.6 -2.0 55 LegendMM 28 19   99.75     LegendNANA
20:00 5.2 -1.9 60 LegendMM 27 14   99.83     LegendNANA
21:00 3.9 -2.1 65 LegendMM 27 8   99.90     LegendNANA
22:00 2.4 -2.3 71 LegendMM 26 8   99.94     LegendNANA
23:00 1.0 -2.3 79 LegendMM 27 8   99.96     LegendNANA

Notes on Data Quality.

Legend

  • E = Estimated
  • M = Missing
  • NA = Not Available*
  • [empty] = Indicates an unobserved value
Date modified: